Terminal Aerodrome Forecast
Issued by NWS Flagstaff, AZ

Home | Current Version | Previous Version | Text Only | Print | Product List | Glossary On
Versions: 1 2 3 4 5 6 7 8 9 10 11 12 13 14 15 16
000
FTUS45 KFGZ 220500
TAFINW
TAF
KINW 220520Z 2206/2306 VRB05KT P6SM BKN110
     FM221700 23012G20KT P6SM SCT060
     FM230200 VRB05KT P6SM FEW050=

USA.gov is the U.S. government's official web portal to all federal, state and local government web resources and services.